Terminal Aerodrome Forecast
Issued by NWS Louisville, KY

Home | Current Version | Previous Version | Text Only | Print | Product List | Glossary On
Versions: 1 2 3 4 5 6 7 8 9 10 11 12 13 14 15 16 17
000
FTUS43 KLMK 301000 AAA
TAFLEX
TAF AMD
KLEX 301038Z 3011/3106 30010G18KT 6SM -SHSN BR BKN025
     FM301500 32009KT P6SM VCSH SCT025 BKN035
     FM301900 33010KT P6SM SCT035
     FM310100 04003KT P6SM SCT250=

USA.gov is the U.S. government's official web portal to all federal, state and local government web resources and services.